Regional Weather Roundup
Issued by NWS Sterling, VA

Home | Current Version | Previous Version | Graphics & Text | Print | Product List | Glossary On
Versions: 1 2 3 4 5 6 7 8 9 10 11 12 13 14 15 16 17 18 19 20 21 22 23 24 25 26 27 28
000
ASUS41 KLWX 030310
RWRLWX

REGIONAL WEATHER ROUNDUP
NATIONAL WEATHER SERVICE BALTIMORE MD/WASHINGTON DC
1000 PM EST FRI DEC 02 2016

Note: "FAIR" indicates few or no clouds below 12,000 feet
with no significant weather and/or obstructions to visibility.
 TC=TEMPERATURE CELSIUS

 * =Non NWS site. Station does not report precipitation (e.g. rain,
    snow, etc.), thunder, or fog.

DCZ001-MDZ009-015-VAZ040>042-051-053>054-030400-
WASHINGTON METRO

CITY           SKY/WX    TMP DP  RH WIND       PRES   REMARKS
WASHINGTON NAT MOCLDY    45  27  49 W17G25    30.13S
DULLES         CLOUDY    42  25  50 W13G29    30.11F
ANDREWS AFB    CLOUDY    43  26  51 W10       30.10S
FT BELVOIR     CLOUDY    44  26  49 NW13      30.14R
QUANTICO       CLOUDY    45  26  47 NW3       30.16R
COLLEGE PARK*  CLOUDY    43  27  52 W8        30.10S
LEESBURG*      CLOUDY    43  30  61 SW8G17    30.11S
MANASSAS*      CLOUDY    45  30  57 NW14G21   30.15R
GAITHERSBURG*  MOCLDY    39  25  56 W13G21    30.12S

$$

MDZ006>007-011-014-030400-
BALTIMORE METRO

CITY           SKY/WX    TMP DP  RH WIND       PRES   REMARKS
BWI AIRPORT    CLOUDY    43  27  53 W12       30.08S
MD SCIENCE CTR   N/A     45  25  45 MISG      30.08R
MARTIN STATE   CLOUDY    45  30  57 W8G16     30.09R
ANNAPOLIS      CLOUDY    46  27  47 VRB7      30.09S
FORT MEADE*    CLOUDY    41  28  60 W9        30.11F

$$

MDZ012-015-019>023-030400-
MARYLAND EASTERN SHORE

CITY           SKY/WX    TMP DP  RH WIND       PRES   REMARKS
OCEAN CITY     PTCLDY    41  29  62 NW9       30.08S
SALISBURY      CLOUDY    43  28  55 NW13G21   30.08S
BAY BRIDGE AP* CLOUDY    45  30  57 W16       30.10S
CAMBRIDGE*     MOCLDY    43  28  56 NW12G17   30.09F

$$

MDZ017>025-030400-
SOUTHERN MARYLAND

CITY           SKY/WX    TMP DP  RH WIND       PRES   REMARKS
PATUXENT RIVER PTCLDY    44  28  53 NW18      30.11S
ST INIGOES     PTCLDY    43  30  60 NW8       30.12R
LEONARDTOWN*   MOCLDY    43  28  56 NW7G17    30.13S

$$

MDZ003>005-030400-
NORTH CENTRAL MARYLAND

CITY           SKY/WX    TMP DP  RH WIND       PRES   REMARKS
FREDERICK*     MOCLDY    41  30  65 W18       30.11S
HAGERSTOWN APT MOCLDY    41  26  55 W16       30.07S
WESTMINSTER*   CLOUDY    39  27  60 W6G16     30.05S

$$

MDZ501>502-030400-
WESTERN MARYLAND

CITY           SKY/WX    TMP DP  RH WIND       PRES   REMARKS
OAKLAND*       CLOUDY    28  28 100 W15G24    30.08R WCI  17
CUMBERLAND*    NOT AVBL

$$

VAZ025>031-030400-
SHENANDOAH VALLEY

CITY           SKY/WX    TMP DP  RH WIND       PRES   REMARKS
WINCHESTER*    CLOUDY    39  25  56 W15G22    30.11F
FRONT ROYAL*   CLOUDY    41  27  56 NW13G20   30.13R
LURAY*         CLOUDY    41  30  65 SW3       30.15R
NEW MARKET*    CLOUDY    40  23  51 CALM      30.14R
STAUNTON*      CLOUDY    37  26  63 W6        30.17R
WAYNESBORO*    CLOUDY    37  23  56 NW10      30.15R

$$

WVZ021-048>050-054>055-030400-
EASTERN WEST VIRGINIA PANHANDLE

CITY           SKY/WX    TMP DP  RH WIND       PRES   REMARKS
MARTINSBURG    CLOUDY    41  25  53 W9G18     30.11R
PETERSBURG*    CLOUDY    41  27  58 CALM      30.17S

$$

VAZ036>039-050-030400-
CENTRAL FOOTHILLS

CITY           SKY/WX    TMP DP  RH WIND       PRES   REMARKS
CHARLOTTESVILL CLOUDY    43  28  55 CALM      30.15R
CULPEPER*      CLOUDY    44  29  56 CALM      30.15S
ORANGE*          N/A     43  28  56 CALM      30.16R
GORDONSVILLE*  MOCLDY    40  29  64 W3        30.14S
WARRENTON*     CLOUDY    43  24  48 W6        30.13S

$$

VAZ055>057-030400-
NORTH AND CENTRAL PIEDMONT

CITY           SKY/WX    TMP DP  RH WIND       PRES   REMARKS
FREDERICKSBRG* CLEAR     42  30  62 NW12      30.14R
STAFFORD*      CLOUDY    42  28  58 CALM      30.19R

$$

NCZ024-NYZ072-PAZ021-071-VAZ022-071-030400-
OTHER REGIONAL OBSERVATIONS

CITY           SKY/WX    TMP DP  RH WIND       PRES   REMARKS
NEW YORK CITY  MOCLDY    45  28  51 VRB6G16   29.93R
PHILADELPHIA   CLOUDY    44  29  55 W16       30.02R
PITTSBURGH     CLOUDY    38  32  79 W13       30.16R
ROANOKE        CLOUDY    41  28  60 NW16      30.20R
RICHMOND       PTCLDY    39  30  70 NW6       30.15R
RALEIGH        CLEAR     43  30  60 CALM      30.18R

$$

ANZ530>537-030400-
MARINE OBSERVATIONS

STATION/POSITION TIME  TEMP    WIND        PRES
                       AIR SEA DIR/SP/G
                 (UTC) (F)     (DEG/KT/KT) (MB)
THOMAS PT LIGHT  0300   45 49  270/ 16/ 18   N/A
BALT KEY BRIDGE  0242   44     250/ 13/ 16 1018.4R
COVE POINT       0242   44     340/ 20/ 28 1020.1R
LEWISETTA        0242   45 52  350/ 16/ 22 1019.9R
SOLOMONS ISLAND  0242   45 52  320/ 11/ 20   N/A
PINEY POINT      0236          340/ 17/ 21   N/A

$$





USA.gov is the U.S. government's official web portal to all federal, state and local government web resources and services.